User: anonymous   Login
Location: Caltech
(34.1382°N, 118.1253°W)
Time: 06:03:06
(UTC-07:00)
Language:

Cosmos 1606 - Orbit

View from above orbital plane
View from above orbital plane
View from above satellite
View from above satellite

Ground track
Ground track

The orbit data is extracted from the following two-line orbital elements,

1 15369U 84111A   15141.10631671  .00003819  00000-0  21261-3 0  9992
2 15369 082.5257 147.1887 0019138 009.5641 350.5951 15.13200128665703
Epoch (UTC): 21 May 2015 02:33:05
Eccentricity: 0.0019138
inclination: 82.5257°
perigee height: 513 km
apogee height: 539 km
right ascension of ascending node: 147.1887°
argument of perigee: 9.5641°
revolutions per day: 15.13200128
mean anomaly at epoch: 350.5951°
orbit number at epoch: 66570

The dashed part of the orbit path shows where the satellite is in the earth's shadow,  

DLR